Theta_e
319 332 336 333 344 345 347 341 340 342 342 345 347 348 348 346 347 356 353 354 354 351 350 349 343 340 344 346 347 346 346 346 346 346 341 337 335 333 333 331 331 331 332 333 333 327 321 320 320
327 331 329 338 349 351 342 340 340 343 343 345 347 346 350 352 346 344 350 352 350 351 351 350 346 346 340 343 345 345 344 345 344 341 338 334 332 332 333 333 331 333 335 335 333 327 322 321 321
320 324 327 341 343 350 346 338 343 344 340 339 343 348 351 351 347 344 345 347 349 351 351 347 346 345 342 342 342 342 341 343 342 340 337 334 332 333 334 331 332 334 335 334 331 323 322 322 321
327 328 328 338 344 342 343 346 342 342 340 341 345 352 350 345 345 344 343 347 352 351 349 347 346 345 342 342 342 343 343 341 339 338 336 334 332 333 333 331 330 333 334 333 325 322 322 322 322
327 328 332 337 339 336 343 341 340 344 340 344 347 351 352 345 342 341 347 349 349 349 349 344 344 343 341 342 341 342 340 340 339 336 335 334 333 333 332 330 330 329 331 329 322 322 322 323 323
327 328 339 344 339 334 343 338 338 340 342 343 348 348 351 347 341 344 345 345 346 347 347 345 340 341 342 342 341 342 338 337 336 335 334 333 330 330 329 330 330 329 330 326 322 321 322 323 324
326 328 334 338 338 339 343 342 342 339 342 345 345 349 347 342 340 342 345 345 345 345 344 344 345 340 340 339 339 339 335 333 332 331 330 330 330 329 328 329 329 328 324 322 321 321 322 323 324
328 328 331 335 339 339 343 341 337 342 350 349 347 352 347 343 345 345 344 342 342 342 342 343 344 343 342 342 339 336 329 326 325 325 325 324 323 322 321 321 323 324 323 323 322 322 323 325 326
327 329 332 331 338 342 337 342 348 349 349 349 347 344 344 344 344 342 342 341 340 339 339 340 341 344 343 343 338 334 326 320 318 318 318 320 324 326 326 329 331 328 324 322 323 325 327 326 328
333 338 332 335 337 345 341 344 354 352 352 352 348 346 345 343 343 341 341 341 340 338 336 338 338 339 338 339 338 337 330 331 330 331 331 327 331 331 332 330 330 330 326 324 325 327 327 329 327
333 334 333 339 339 342 353 352 348 352 349 346 347 343 342 342 341 339 339 338 337 335 335 336 336 338 337 336 337 334 330 329 328 332 326 328 332 335 334 334 332 332 331 332 331 327 327 325 324
335 334 334 336 338 349 351 348 345 344 343 340 339 339 337 337 337 337 336 337 336 335 334 334 335 335 334 334 333 332 331 331 331 331 331 333 332 332 332 331 332 330 332 327 325 325 323 323 321
335 336 339 345 348 348 346 347 344 342 339 338 338 337 336 335 335 336 336 335 335 333 333 333 334 333 332 333 333 332 331 332 331 329 329 328 327 327 327 329 328 329 328 325 325 323 323 323 322
336 337 341 343 346 347 348 347 344 341 337 337 337 335 333 334 333 332 331 329 329 330 328 329 329 329 331 331 330 330 329 330 329 329 327 327 325 325 325 326 327 326 324 324 324 324 325 324 323
336 340 341 343 344 345 346 348 346 340 338 339 335 334 332 330 330 329 327 325 324 326 325 326 327 327 325 326 325 325 326 327 327 325 324 323 322 322 322 323 323 324 324 323 323 323 322 323 321
339 339 344 335 333 345 345 352 346 340 340 340 335 332 329 327 326 325 324 324 325 326 323 322 322 322 322 321 325 324 323 323 322 322 320 318 315 314 314 315 317 318 320 322 322 321 321 320 319
337 343 339 341 334 338 341 351 344 342 340 337 333 331 328 326 324 324 324 325 325 323 323 322 321 320 320 318 317 318 318 319 323 323 323 322 322 320 320 321 320 317 317 318 319 320 320 320 319
339 339 342 343 338 333 339 346 346 343 340 335 333 331 331 329 325 324 325 325 324 323 323 322 321 320 318 316 316 316 315 316 320 319 317 317 317 315 316 315 316 320 320 321 321 319 321 319 316
329 338 337 336 333 338 336 345 343 342 339 336 334 333 330 328 326 327 327 325 323 323 323 322 321 320 317 316 316 315 315 315 316 316 315 315 313 313 313 313 314 314 316 317 319 320 321 320 319
330 333 338 336 337 338 335 341 342 341 338 335 334 335 332 330 329 327 325 325 324 323 323 321 320 318 317 316 317 316 314 316 314 314 314 312 311 313 313 312 312 314 314 315 316 317 319 319 319
331 333 333 332 335 332 334 342 345 339 336 334 334 334 332 331 327 325 325 323 322 322 321 320 319 317 317 315 315 315 314 313 313 313 312 312 312 311 311 312 313 314 314 316 315 317 318 319 318
331 332 331 330 331 334 337 342 343 339 338 336 335 334 332 330 325 324 322 320 320 319 318 316 318 316 315 314 314 313 313 313 313 314 313 312 312 311 313 311 314 315 314 315 315 316 316 317 318
331 331 331 332 333 335 339 345 347 336 338 338 336 334 329 325 323 322 321 322 324 319 317 317 313 314 313 313 313 314 314 313 313 313 312 313 312 312 312 313 314 315 314 314 315 316 316 316 316
332 332 330 330 330 333 337 338 344 341 340 338 334 327 325 324 322 322 323 322 320 318 317 315 314 313 313 312 313 313 313 313 311 312 312 311 311 312 312 313 314 312 314 313 315 316 317 317 317
330 332 333 333 334 326 330 344 340 337 336 336 333 329 326 324 323 323 321 321 319 316 315 314 313 312 312 312 312 312 312 311 311 310 310 310 311 311 311 312 313 313 313 314 314 314 315 315 316
330 330 331 331 329 327 338 345 340 333 333 331 330 328 324 323 322 320 319 318 315 314 313 312 312 312 310 311 311 310 309 309 309 309 309 309 310 310 310 311 312 312 314 313 312 312 313 314 314
330 329 325 329 328 329 343 338 336 332 332 330 328 326 325 323 321 319 317 316 313 313 313 313 312 312 312 310 310 309 308 308 308 307 307 307 308 310 310 311 311 312 312 312 311 311 312 313 314
327 327 330 329 332 333 340 338 336 333 331 329 328 324 323 321 318 317 314 314 314 313 312 311 311 311 310 309 309 309 307 307 307 306 306 306 307 309 308 309 310 311 310 311 309 310 310 309 313
329 330 331 332 333 336 338 340 329 329 326 326 324 321 320 318 316 315 314 313 311 311 310 310 310 309 309 309 309 308 307 307 307 306 305 306 306 308 308 309 309 308 310 311 311 310 311 311 312
328 329 330 333 332 338 337 340 329 326 325 325 323 321 318 318 315 314 312 311 310 309 308 309 309 308 308 309 308 308 307 307 306 306 305 305 306 307 308 308 309 309 309 310 310 309 309 310 311
Wind_Speed
12 7 8 15 4 4 11 9 0 19 19 19 24 20 24 20 11 10 25 19 23 23 22 16 14 13 12 11 11 11 10 9 10 8 10 11 13 14 15 16 17 19 19 18 18 19 20 20 21
8 14 15 3 4 6 4 13 20 16 18 14 24 23 25 21 20 14 18 17 22 22 19 14 12 12 11 10 10 10 8 8 7 9 11 12 14 15 15 15 17 17 17 16 17 17 18 19 20
11 13 6 5 1 5 7 12 23 27 22 6 9 18 11 11 20 11 21 24 23 21 17 14 12 10 10 10 10 9 9 8 9 10 11 12 14 15 15 14 15 14 14 14 14 16 16 18 19
8 9 5 8 13 22 29 19 22 26 14 5 20 16 16 22 20 18 16 24 24 21 18 14 11 11 10 10 11 8 8 7 10 11 11 11 13 14 14 12 13 12 11 11 12 13 15 17 18
16 6 5 8 21 8 27 33 36 20 24 6 19 16 14 17 18 16 26 27 25 20 17 15 12 11 10 9 9 8 7 10 10 11 11 11 12 12 12 10 9 9 9 8 9 11 13 16 18
8 11 9 1 25 14 33 34 30 18 14 27 23 17 7 1 13 32 27 23 23 22 17 14 12 11 10 9 9 8 9 10 10 9 10 11 11 11 10 8 7 6 5 5 6 9 12 15 15
13 12 4 13 10 14 25 19 17 13 17 11 18 18 9 10 16 28 28 24 22 17 17 13 11 10 8 8 9 9 9 9 9 8 8 9 9 8 7 7 6 4 2 1 4 7 10 13 11
12 11 5 17 5 3 16 10 21 17 3 22 19 13 15 11 26 22 22 27 22 21 15 16 11 8 7 9 9 9 8 8 8 7 7 6 8 8 7 5 6 4 3 3 4 7 11 10 9
14 7 6 4 13 11 15 10 18 15 23 30 27 23 16 21 27 32 25 22 22 17 22 15 9 7 7 9 8 7 6 5 5 3 4 5 7 9 11 6 12 8 10 8 5 6 7 9 14
5 12 2 10 15 13 17 6 21 11 19 21 21 22 26 25 25 24 24 24 23 21 22 16 19 14 8 7 5 8 7 5 5 2 5 5 12 15 9 12 13 14 11 9 5 2 7 10 11
5 3 3 14 11 15 17 19 20 20 13 14 14 17 19 24 27 26 23 21 21 24 25 22 19 19 17 10 9 6 2 3 6 4 7 3 14 7 12 10 7 5 4 6 8 6 6 8 10
3 7 9 7 5 15 14 11 20 23 12 15 15 16 20 20 20 21 19 19 20 22 22 23 19 19 18 14 13 10 8 8 6 3 2 4 7 11 12 12 10 8 4 8 9 7 6 11 13
3 6 11 13 19 21 21 19 15 18 15 14 18 18 18 17 17 17 21 23 21 23 20 19 17 19 17 14 11 8 7 7 8 8 6 9 11 12 12 11 6 3 3 4 2 7 12 15 18
8 7 9 12 16 15 20 15 10 10 13 15 15 19 15 16 19 20 21 20 23 21 19 18 18 16 13 13 12 12 9 7 8 9 8 10 9 12 12 11 12 11 11 13 14 16 18 23 16
23 17 20 4 9 12 22 18 13 10 12 16 18 16 15 17 18 18 16 18 18 18 20 15 15 16 16 12 10 9 9 7 8 9 11 11 12 13 12 14 15 15 17 16 15 15 15 14 11
26 15 8 26 29 15 21 7 16 15 13 17 16 14 13 13 15 13 13 16 13 12 17 17 16 15 13 13 7 6 6 2 3 2 4 7 10 9 11 12 14 14 14 13 12 14 12 10 10
6 10 11 10 31 28 7 13 15 18 14 18 14 13 10 10 11 9 10 9 11 12 12 13 14 15 16 13 13 13 12 11 8 2 3 5 6 10 12 12 15 12 13 15 14 14 12 10 11
10 5 9 15 30 7 8 14 19 19 16 16 14 12 11 11 9 8 7 9 9 10 11 12 14 13 15 16 15 14 15 12 3 2 3 5 6 11 13 16 20 16 13 14 11 12 10 10 11
9 4 3 3 8 14 5 14 15 20 18 16 12 10 9 10 10 9 9 10 7 8 7 11 14 14 16 18 15 14 17 17 10 9 10 5 7 12 13 17 18 20 17 15 15 15 13 14 13
13 5 5 4 10 18 14 8 11 19 18 16 13 11 10 10 11 11 10 5 5 4 9 12 12 14 11 14 15 11 16 19 14 12 10 13 11 10 13 15 17 18 19 20 16 13 15 16 14
9 11 12 17 10 17 5 12 17 14 14 13 9 14 10 11 6 6 14 9 7 6 9 10 9 10 10 14 19 15 16 20 17 18 15 16 14 13 15 15 15 16 17 18 17 15 13 13 12
9 11 16 18 17 10 8 2 4 5 7 7 10 14 12 11 9 11 12 11 8 14 12 10 8 13 15 16 12 16 15 14 15 14 14 15 12 11 14 15 14 12 15 15 15 13 12 8 8
12 16 16 20 19 5 0 5 4 13 10 6 11 11 12 11 11 5 6 9 10 5 4 15 19 19 15 15 14 14 16 16 17 17 16 16 15 14 12 11 12 12 13 12 9 9 9 6 7
11 16 22 18 9 4 5 1 7 8 6 13 9 12 11 8 5 3 5 6 2 6 14 14 16 15 16 17 17 19 18 18 19 17 16 17 16 17 17 13 11 11 10 9 9 9 8 7 7
20 18 11 10 11 11 7 14 8 15 15 13 10 8 7 4 5 3 9 5 2 17 15 14 16 18 19 17 18 17 16 18 18 17 17 18 15 15 16 15 11 9 9 9 10 8 9 8 6
12 13 10 15 14 15 18 6 4 13 11 8 9 8 6 5 10 8 12 16 15 17 15 13 14 17 21 19 16 17 18 18 18 19 16 16 14 14 15 12 8 8 10 10 11 10 9 9 6
7 12 13 11 16 9 8 8 3 4 6 7 9 5 3 13 9 7 6 11 21 13 13 13 17 18 17 17 17 18 18 19 19 18 16 15 14 12 11 11 9 9 9 10 12 12 9 11 11
13 14 8 7 8 11 9 13 5 9 8 9 7 15 11 5 9 9 21 16 15 18 20 22 21 17 16 16 15 16 16 18 15 16 16 14 14 10 11 13 11 9 8 8 9 9 12 11 11
9 11 7 4 2 4 4 6 8 14 10 11 11 11 13 13 8 12 16 18 20 22 20 19 19 15 17 18 16 17 18 16 15 16 15 13 9 10 10 7 8 9 7 7 6 6 6 10 10
12 7 9 6 10 9 15 5 10 11 9 12 12 11 9 6 14 16 22 19 20 21 20 17 18 18 17 16 18 17 18 17 17 16 17 13 11 10 11 11 8 9 10 10 11 13 12 10 10
Wind_Direction
302 278 240 256 51 165 247 145 259 83 69 72 77 76 74 56 86 110 98 91 93 94 91 95 95 97 94 100 108 116 120 115 112 118 109 110 110 111 109 105 100 96 94 88 82 77 69 62 55
281 285 255 97 75 295 104 159 95 93 51 83 101 86 71 70 81 91 104 96 82 89 93 102 98 95 100 105 111 115 112 105 106 110 118 122 122 118 113 105 100 97 93 90 82 75 66 58 52
284 266 267 119 164 270 262 105 74 30 112 129 73 56 40 52 85 101 113 106 100 101 99 103 101 94 92 107 110 111 113 114 112 115 122 129 130 126 120 111 105 99 95 91 82 72 62 52 44
262 223 236 212 191 214 247 84 76 32 353 264 106 75 60 65 83 97 78 104 102 102 107 103 100 104 104 108 109 107 118 120 120 122 124 129 135 132 129 124 119 109 100 92 82 68 54 42 33
241 263 246 261 291 96 75 71 72 81 321 11 87 99 86 103 90 101 104 95 110 106 100 98 100 102 105 111 115 114 122 115 119 125 131 140 144 144 140 133 125 112 107 95 71 56 43 32 24
265 249 80 60 251 81 85 88 82 73 256 271 115 104 88 183 110 93 89 83 86 94 94 90 96 107 111 111 115 111 117 124 129 134 138 147 154 157 152 148 138 124 110 88 53 40 30 21 23
260 286 116 217 301 56 121 107 120 187 225 225 125 96 139 118 107 98 94 82 82 81 84 87 97 93 114 119 121 122 128 134 137 143 144 151 160 168 169 168 163 162 157 39 22 15 12 5 14
256 294 295 216 170 174 86 125 147 160 218 44 121 123 118 126 89 89 76 70 70 74 77 64 76 97 113 108 122 127 135 140 138 149 158 169 186 192 199 202 201 195 244 288 330 351 357 2 360
258 268 346 340 135 71 52 22 124 93 81 70 67 95 117 101 84 77 73 60 52 54 64 56 57 81 117 120 119 119 123 120 114 135 192 211 218 234 212 211 216 258 273 268 295 351 10 359 343
85 303 156 13 39 118 125 123 91 69 74 62 60 56 56 64 71 76 68 62 56 43 43 39 55 46 62 93 100 109 123 142 176 162 233 251 296 243 227 219 249 252 261 262 270 355 348 352 1
54 237 75 45 55 102 99 64 48 119 68 63 73 62 58 60 65 66 66 62 62 56 52 51 46 46 56 63 81 71 32 333 313 292 10 193 306 342 330 0 215 237 219 290 265 49 57 22 2
19 360 62 41 18 73 79 76 70 72 89 79 80 78 72 64 59 62 73 69 66 54 50 43 42 46 51 60 58 62 90 89 78 52 263 14 347 323 347 16 64 61 110 82 73 56 32 10 8
151 78 76 65 73 79 81 78 85 75 84 88 82 82 79 71 71 67 60 53 63 56 53 48 43 40 41 46 50 51 49 43 30 20 3 351 330 332 330 335 351 319 89 352 34 347 345 339 341
96 120 126 140 136 131 105 97 68 88 98 90 90 77 76 71 64 58 51 48 50 54 49 45 41 37 41 47 34 48 35 26 22 23 0 355 341 321 324 308 309 306 305 307 303 305 305 308 311
50 31 7 116 149 123 122 64 99 124 113 105 88 87 80 68 68 66 62 62 63 61 59 47 45 38 32 31 27 22 10 11 13 5 352 343 341 330 326 320 311 309 306 301 300 299 291 284 270
76 58 21 313 321 332 222 165 133 151 134 115 99 90 83 76 76 75 77 80 77 68 66 53 41 33 21 13 353 343 357 328 353 329 351 7 356 352 344 324 314 310 309 298 298 298 289 281 286
332 124 156 223 254 254 1 141 148 164 135 110 106 103 102 101 91 91 89 78 78 72 69 62 50 29 12 5 347 354 337 326 295 121 358 2 343 338 324 325 316 312 292 285 284 279 276 283 261
187 141 117 215 269 286 109 111 155 148 122 116 121 123 125 117 116 120 122 105 81 69 57 54 53 35 21 3 359 359 349 344 11 122 354 337 343 336 331 323 316 293 289 287 279 274 265 267 260
1 143 64 306 301 311 344 144 157 123 128 117 125 124 120 133 147 139 113 101 96 78 60 54 43 31 25 3 355 351 343 331 345 38 25 44 3 332 315 311 320 319 323 318 296 274 255 250 255
322 353 80 277 249 255 294 194 143 141 121 121 142 146 142 149 141 138 146 144 124 81 84 66 52 30 24 359 345 357 339 323 12 17 12 348 349 325 315 315 312 312 312 314 312 313 280 255 244
24 355 343 325 257 273 294 37 48 37 83 124 124 129 122 81 84 96 64 27 37 42 72 45 43 33 15 13 356 358 340 343 352 347 343 336 339 325 317 312 299 303 306 304 317 317 296 257 249
346 352 324 312 308 332 92 262 136 62 60 149 130 102 100 119 115 78 69 53 28 34 37 26 30 43 16 3 356 343 331 331 332 322 329 325 319 319 301 314 315 314 319 313 316 313 306 283 276
344 327 297 293 284 68 348 124 79 150 229 144 100 105 115 109 104 103 52 58 7 288 66 39 37 34 20 12 355 343 343 336 328 335 339 342 348 345 347 340 325 329 323 318 331 330 323 294 294
295 319 310 295 303 302 126 351 40 31 101 108 102 102 100 105 107 39 97 53 40 325 15 360 34 19 3 358 1 359 0 354 354 352 357 352 348 341 347 348 337 333 338 346 353 359 347 319 297
353 335 324 347 327 335 346 67 39 64 64 104 124 117 123 89 31 74 68 25 332 13 7 23 17 0 357 16 5 2 356 350 349 352 350 338 336 343 345 343 345 353 11 19 11 10 359 350 336
341 346 344 325 316 301 46 61 32 59 87 102 124 134 87 76 41 52 38 22 359 46 41 31 7 17 14 17 6 355 3 6 360 349 344 338 342 344 343 345 6 28 38 38 36 25 6 358 6
9 337 328 286 277 273 122 93 84 131 91 87 108 70 24 65 62 33 13 26 71 40 21 14 25 8 15 7 358 14 17 10 359 359 357 357 353 356 15 28 41 48 44 40 37 29 45 39 52
2 328 348 332 322 338 103 80 75 107 108 91 62 76 104 153 72 26 51 47 30 13 29 23 27 19 3 355 14 20 8 356 358 2 357 354 360 14 50 43 40 47 46 46 41 40 35 47 46
17 8 350 359 302 338 274 78 77 85 62 78 90 78 60 55 17 43 49 34 15 17 9 16 11 4 4 24 28 7 356 6 360 5 359 356 7 17 39 40 40 35 26 20 5 18 34 26 24
59 20 10 349 343 39 328 65 76 59 59 96 92 73 65 22 37 20 33 21 10 22 23 5 14 12 18 34 6 10 6 3 359 3 5 13 22 15 20 19 26 25 19 22 19 6 21 19 15